Regional Weather Roundup
Issued by NWS Cleveland, OH

Home | Current Version | Previous Version | Graphics & Text | Print | Product List | Glossary On
Versions: 1 2 3 4 5 6 7 8 9 10 11 12 13 14 15 16 17 18 19 20 21 22 23 24 25 26 27 28 29 30 31 32 33 34 35 36 37 38 39 40 41 42 43 44 45 46 47 48 49 50
000
ASUS41 KCLE 241910
RWRCLE
OHIO REGIONAL WEATHER ROUNDUP
NATIONAL WEATHER SERVICE CLEVELAND, OH
300 PM EDT SUN JUL 24 2016

NOTE: "FAIR" INDICATES FEW OR NO CLOUDS BELOW 12,000 FEET WITH NO
SIGNIFICANT WEATHER AND/OR OBSTRUCTIONS TO VISIBILITY.

OHZ001>008-015>018-024>027-034-035-043-044-242000-
   NORTHWEST OHIO

CITY           SKY/WX    TMP DP  RH WIND       PRES   REMARKS
DEFIANCE       PTSUNNY   83  70  64 VRB7      29.98F
FINDLAY        CLOUDY    84  66  54 NE15      30.01F
TOLEDO EXPRESS LGT RAIN  72  72 100 SW6       29.95F
TOLEDO EXEC    LGT RAIN  72  71  97 S10       29.97F
LIMA           CLOUDY    81  70  69 NE13      30.02F
$$

OHZ009>014-019>023-028>033-038-089-242000-
   NORTHEAST OHIO

CITY           SKY/WX    TMP DP  RH WIND       PRES   REMARKS
CLE-HOPKINS    CLOUDY    85  72  65 W14       30.01S HX  91
CLE-LAKEFRONT  CLOUDY    85  70  60 SW9       29.97F
CUY CO. ARPT   CLOUDY    82  72  69 SW12      30.00S
LORAIN-ELYRIA  MOSUNNY   80  72  76 W9        30.00S
ASHTABULA      CLOUDY    84  69  60 S3        29.98F
AKRON-CANTON   CLOUDY    76  72  87 S7        30.03S THUNDER
WOOSTER        CLOUDY    85  69  58 W16G22    30.02R
MANSFIELD      PTSUNNY   88  70  55 NW14G21   30.03S HX  93
YOUNGSTOWN     TSTM      73  71  93 W14       30.01R FOG
$$

OHZ042-051>053-060>062-070>072-077>081-242000-
  SOUTHWEST OHIO

CITY           SKY/WX    TMP DP  RH WIND       PRES   REMARKS
CINC-COVINGTON MOSUNNY   93  74  53 W10       30.01F HX 103
CINC-LUNKEN    MOSUNNY   93  73  52 SW12      29.99S HX 102
HAMILTON       MOSUNNY   93  73  52 SW8       30.00S HX 102
DAYTON         PTSUNNY   90  72  55 W12       30.02F HX  97
WRIGHT-PAT AFB SUNNY     92  73  53 W12       29.99F HX 101
DAYTON GENERAL MOSUNNY   93  69  45 W8        30.00F HX  98
WILMINGTON     MOSUNNY   92  73  53 SW9       30.01F HX 100
$$

OHZ036-037-039>041-045>050-054>059-063>069-073>076-082>088-242000-
  CENTRAL AND SOUTHEAST OHIO

CITY           SKY/WX    TMP DP  RH WIND       PRES   REMARKS
COLUMBUS       MOSUNNY   91  71  51 W12       29.99F HX  97
OSU AIRPORT    MOSUNNY   93  74  53 SW9       30.00S HX 103
BOLTON FIELD   PTSUNNY   91  75  59 W8        30.01F HX 102
RICKENBACK AFB PTSUNNY   92  75  56 W9        29.99F HX 103
NEWARK         CLOUDY    93  72  50 SW10G20   30.00S HX 101
MARION         PTSUNNY   84  69  60 N14       30.04R
LANCASTER      MOSUNNY   90  76  63 SW9       30.01F HX 101
ZANESVILLE     CLOUDY    95  72  47 W9        30.00F HX 103
NEW PHILLY     PTSUNNY   91  71  51 W8G17     30.00S HX  97
$$




USA.gov is the U.S. government's official web portal to all federal, state and local government web resources and services.